• In Hungary
  • List of Countries
  • For 7 days
  • Water Temperature
  • Satellite Maps
  • Weather Map
  • News
  • Weather Widgets
  • user-avatar
    Login

    Hourly Weather Kitzbuhel

    Today, 18 January, Thursday

    Time Temperature Precipitation Wind Pressure Humidity
    00:00 -5°C° 0.6 mm 4 mps 671 mmHg 92%
    01:00 -5°C° 0.6 mm 3 mps 672 mmHg 92%
    02:00 -5°C° 0.6 mm 3 mps 672 mmHg 93%
    03:00 -5°C° 0.6 mm 3 mps 672 mmHg 93%
    04:00 -4°C° 0.6 mm 2 mps 672 mmHg 93%
    05:00 -4°C° 0.6 mm 2 mps 672 mmHg 92%
    06:00 -4°C° 0.6 mm 2 mps 671 mmHg 91%
    07:00 -4°C° 0.6 mm 2 mps 671 mmHg 90%
    08:00 -4°C° 0.3 mm 3 mps 671 mmHg 88%
    09:00 -4°C° 0.3 mm 3 mps 670 mmHg 86%
    10:00 -2°C° 0.3 mm 3 mps 670 mmHg 84%
    11:00 -1°C° 0.5 mm 3 mps 669 mmHg 85%
    12:00 0°C° 0.5 mm 3 mps 669 mmHg 86%
    13:00 +1°C° 0.5 mm 3 mps 669 mmHg 87%
    14:00 +1°C° 0.1 mm 3 mps 668 mmHg 87%
    15:00 +2°C° 0.1 mm 3 mps 668 mmHg 87%
    16:00 +2°C° 0.1 mm 3 mps 668 mmHg 87%
    17:00 +1°C° 0 mm 3 mps 668 mmHg 86%
    18:00 +1°C° 0 mm 3 mps 668 mmHg 85%
    19:00 +1°C° 0 mm 3 mps 668 mmHg 84%
    20:00 0°C° 0.1 mm 3 mps 668 mmHg 84%
    21:00 0°C° 0.1 mm 3 mps 668 mmHg 84%
    22:00 0°C° 0.1 mm 3 mps 668 mmHg 84%
    23:00 0°C° 0.5 mm 3 mps 668 mmHg 85%

    Tomorrow, 19 January, Friday

    Time Temperature Precipitation Wind Pressure Humidity
    00:00 0°C° 0.5 mm 3 mps 668 mmHg 86%
    01:00 +1°C° 0.5 mm 2 mps 668 mmHg 87%
    02:00 +1°C° 1 mm 2 mps 668 mmHg 89%
    03:00 +1°C° 1 mm 2 mps 668 mmHg 91%
    04:00 +1°C° 1 mm 2 mps 668 mmHg 93%
    05:00 +1°C° 1.4 mm 2 mps 669 mmHg 93%
    06:00 +1°C° 1.4 mm 2 mps 669 mmHg 94%
    07:00 +1°C° 1.4 mm 2 mps 670 mmHg 95%
    08:00 +1°C° 1 mm 2 mps 670 mmHg 95%
    09:00 -1°C° 1 mm 2 mps 670 mmHg 95%
    10:00 -1°C° 1 mm 2 mps 670 mmHg 95%
    11:00 -1°C° 0.7 mm 2 mps 670 mmHg 94%
    12:00 -1°C° 0.7 mm 2 mps 670 mmHg 94%
    13:00 -1°C° 0.7 mm 2 mps 670 mmHg 93%
    14:00 -2°C° 0.3 mm 2 mps 671 mmHg 93%
    15:00 -2°C° 0.3 mm 2 mps 671 mmHg 93%
    16:00 -2°C° 0.3 mm 2 mps 671 mmHg 93%
    17:00 -4°C° 0.1 mm 2 mps 671 mmHg 92%
    18:00 -5°C° 0.1 mm 2 mps 671 mmHg 92%
    19:00 -6°C° 0.1 mm 2 mps 671 mmHg 91%
    20:00 -7°C° 0 mm 2 mps 670 mmHg 89%
    21:00 -7°C° 0 mm 2 mps 670 mmHg 86%
    22:00 -7°C° 0 mm 2 mps 670 mmHg 84%
    23:00 -6°C° 0.1 mm 2 mps 670 mmHg 83%

    Day after tomorrow, 20 January, Saturday

    Time Temperature Precipitation Wind Pressure Humidity
    00:00 -6°C° 0.1 mm 2 mps 671 mmHg 82%
    01:00 -5°C° 0.1 mm 2 mps 671 mmHg 81%
    02:00 -5°C° 0.2 mm 2 mps 671 mmHg 85%
    03:00 -4°C° 0.2 mm 2 mps 671 mmHg 88%
    04:00 -4°C° 0.2 mm 2 mps 672 mmHg 92%
    05:00 -5°C° 0.1 mm 2 mps 671 mmHg 92%
    06:00 -5°C° 0.1 mm 2 mps 671 mmHg 91%
    07:00 -5°C° 0.1 mm 2 mps 671 mmHg 90%
    08:00 -5°C° 0.2 mm 2 mps 671 mmHg 89%
    09:00 -4°C° 0.2 mm 2 mps 671 mmHg 89%
    10:00 -3°C° 0.2 mm 2 mps 671 mmHg 88%
    11:00 -3°C° 0.3 mm 2 mps 671 mmHg 86%
    12:00 -2°C° 0.3 mm 2 mps 671 mmHg 84%
    13:00 -2°C° 0.3 mm 2 mps 670 mmHg 82%
    14:00 0°C° 0.3 mm 1 mps 670 mmHg 85%
    15:00 0°C° 0.3 mm 1 mps 669 mmHg 87%
    16:00 -1°C° 0.3 mm 1 mps 669 mmHg 90%
    17:00 -1°C° 0.8 mm 1 mps 669 mmHg 92%
    18:00 -2°C° 0.8 mm 1 mps 669 mmHg 94%
    19:00 -2°C° 0.8 mm 1 mps 669 mmHg 96%
    20:00 -2°C° 1.2 mm 1 mps 670 mmHg 96%
    21:00 -2°C° 1.2 mm 1 mps 670 mmHg 97%
    22:00 -2°C° 1.2 mm 1 mps 670 mmHg 97%
    23:00 -3°C° 1 mm 1 mps 670 mmHg 97%

    21 January, Sunday

    Time Temperature Precipitation Wind Pressure Humidity
    00:00 -3°C° 1 mm 1 mps 671 mmHg 97%
    01:00 -5°C° 1 mm 2 mps 671 mmHg 97%
    02:00 -5°C° 0.4 mm 2 mps 671 mmHg 97%
    03:00 -5°C° 0.4 mm 2 mps 672 mmHg 96%
    04:00 -4°C° 0.4 mm 1 mps 672 mmHg 96%
    05:00 -4°C° 0.2 mm 1 mps 672 mmHg 95%
    06:00 -7°C° 0.2 mm 2 mps 673 mmHg 95%
    07:00 -8°C° 0.2 mm 2 mps 673 mmHg 94%
    08:00 -7°C° 0.1 mm 2 mps 674 mmHg 93%
    09:00 -6°C° 0.1 mm 2 mps 674 mmHg 92%
    10:00 -5°C° 0.1 mm 2 mps 675 mmHg 91%
    11:00 -5°C° 0 mm 2 mps 675 mmHg 88%
    12:00 -4°C° 0 mm 2 mps 675 mmHg 86%
    13:00 -3°C° 0 mm 2 mps 675 mmHg 84%
    14:00 -1°C° 0.3 mm 1 mps 675 mmHg 86%
    15:00 -1°C° 0.3 mm 1 mps 675 mmHg 89%
    16:00 -2°C° 0.3 mm 1 mps 675 mmHg 91%
    17:00 -2°C° 0.6 mm 1 mps 675 mmHg 92%
    18:00 -2°C° 0.6 mm 1 mps 675 mmHg 93%
    19:00 -2°C° 0.6 mm 1 mps 675 mmHg 94%
    20:00 -2°C° 1.2 mm 1 mps 675 mmHg 95%
    21:00 -2°C° 1.2 mm 1 mps 675 mmHg 96%
    22:00 -1°C° 1.2 mm 1 mps 675 mmHg 97%
    23:00 -1°C° 2.1 mm 1 mps 675 mmHg 97%

    22 January, Monday

    Time Temperature Precipitation Wind Pressure Humidity
    00:00 0°C° 2.1 mm 1 mps 675 mmHg 97%
    01:00 0°C° 2.1 mm 1 mps 675 mmHg 97%
    02:00 +1°C° 1.7 mm 1 mps 675 mmHg 97%
    03:00 +1°C° 1.7 mm 1 mps 675 mmHg 97%
    04:00 +2°C° 1.7 mm 1 mps 675 mmHg 97%
    05:00 +2°C° 2.7 mm 1 mps 676 mmHg 98%
    06:00 +2°C° 2.7 mm 1 mps 676 mmHg 98%
    07:00 +3°C° 2.7 mm 1 mps 676 mmHg 98%
    08:00 +3°C° 2.1 mm 1 mps 677 mmHg 98%
    09:00 +3°C° 2.1 mm 1 mps 677 mmHg 98%
    10:00 +4°C° 2.1 mm 1 mps 677 mmHg 98%
    11:00 +4°C° 1.2 mm 1 mps 678 mmHg 99%
    12:00 +3°C° 1.2 mm 2 mps 678 mmHg 99%
    13:00 +3°C° 1.2 mm 2 mps 678 mmHg 99%
    14:00 +4°C° 0.7 mm 2 mps 678 mmHg 99%
    15:00 +4°C° 0.7 mm 2 mps 678 mmHg 98%
    16:00 +4°C° 0.7 mm 2 mps 679 mmHg 98%
    17:00 +4°C° 1.2 mm 2 mps 679 mmHg 98%
    18:00 +5°C° 1.2 mm 1 mps 679 mmHg 97%
    19:00 +4°C° 1.2 mm 1 mps 679 mmHg 97%
    20:00 +5°C° 2.3 mm 1 mps 679 mmHg 97%
    21:00 +5°C° 2.3 mm 1 mps 680 mmHg 97%
    22:00 +4°C° 2.3 mm 2 mps 680 mmHg 97%
    23:00 +4°C° 1.4 mm 2 mps 680 mmHg 97%

    23 January, Tuesday

    Time Temperature Precipitation Wind Pressure Humidity
    00:00 +4°C° 1.4 mm 2 mps 680 mmHg 97%
    01:00 +4°C° 1.4 mm 2 mps 680 mmHg 97%
    02:00 +4°C° 0.2 mm 2 mps 680 mmHg 97%
    03:00 +3°C° 0.2 mm 2 mps 680 mmHg 97%
    04:00 +3°C° 0.2 mm 2 mps 681 mmHg 96%
    05:00 +3°C° 0.1 mm 2 mps 681 mmHg 96%
    06:00 +3°C° 0.1 mm 2 mps 681 mmHg 95%
    07:00 +3°C° 0.1 mm 2 mps 681 mmHg 94%
    08:00 +3°C° 0 mm 2 mps 681 mmHg 95%
    09:00 +3°C° 0 mm 2 mps 682 mmHg 96%
    10:00 +4°C° 0 mm 2 mps 682 mmHg 97%
    11:00 +4°C° 0.3 mm 2 mps 682 mmHg 97%
    12:00 +4°C° 0.3 mm 2 mps 682 mmHg 98%
    13:00 +4°C° 0.3 mm 2 mps 682 mmHg 99%
    14:00 +4°C° 0.3 mm 2 mps 683 mmHg 98%
    15:00 +4°C° 0.3 mm 2 mps 683 mmHg 96%
    16:00 +4°C° 0.3 mm 2 mps 683 mmHg 95%
    17:00 +3°C° 0 mm 2 mps 683 mmHg 93%
    18:00 +3°C° 0 mm 2 mps 684 mmHg 91%
    19:00 +2°C° 0 mm 2 mps 684 mmHg 89%
    20:00 +2°C° 0 mm 2 mps 684 mmHg 88%
    21:00 +2°C° 0 mm 2 mps 684 mmHg 87%
    22:00 +3°C° 0 mm 1 mps 684 mmHg 87%
    23:00 +2°C° 0 mm 1 mps 684 mmHg 85%
    Show more